Time,TemperatureF,DewpointF,PressureIn,WindDirection,WindDirectionDegrees,WindSpeedMPH,WindSpeedGustMPH,Humidity,HourlyPrecipIn,Conditions,Clouds,dailyrainin,SoftwareType,DateUTC
2013-02-01 00:03:00,44.4,22.2,29.97,WSW,248,2.9,4.6,41,0.00,CLR,,0.00,WeatherDisplay:10.37,2013-02-01 06:03:00,
2013-02-01 00:08:00,44.4,22.2,29.97,WSW,248,2.9,4.6,41,0.00,CLR,,0.00,WeatherDisplay:10.37,2013-02-01 06:08:00,
2013-02-01 00:13:00,43.9,21.7,29.97,West,270,2.4,2.6,41,0.00,CLR,,0.00,WeatherDisplay:10.37,2013-02-01 06:13:00,
2013-02-01 00:18:00,43.7,21.5,29.97,West,270,3.6,3.8,41,0.00,CLR,,0.00,WeatherDisplay:10.37,2013-02-01 06:18:00,
2013-02-01 00:23:00,43.7,22.1,29.97,West,270,2.6,3.5,42,0.00,CLR,,0.00,WeatherDisplay:10.37,2013-02-01 06:23:00,
2013-02-01 00:28:00,43.9,22.2,29.97,WNW,292,3.8,4.9,42,0.00,CLR,,0.00,WeatherDisplay:10.37,2013-02-01 06:28:00,
2013-02-01 00:33:00,44.1,22.4,29.97,West,270,3.8,4.6,42,0.00,CLR,,0.00,WeatherDisplay:10.37,2013-02-01 06:33:00,
2013-02-01 00:38:00,44.1,22.4,29.97,West,270,2.9,3.5,42,0.00,CLR,,0.00,WeatherDisplay:10.37,2013-02-01 06:38:00,
2013-02-01 00:43:00,44.1,22.4,29.97,West,270,3.1,4.6,42,0.00,CLR,,0.00,WeatherDisplay:10.37,2013-02-01 06:43:00,
2013-02-01 00:48:00,44.1,22.4,29.97,West,270,2.9,3.8,42,0.00,CLR,,0.00,WeatherDisplay:10.37,2013-02-01 06:48:00,
2013-02-01 00:53:00,43.9,22.2,29.97,West,270,2.6,4.6,42,0.00,CLR,,0.00,WeatherDisplay:10.37,2013-02-01 06:53:00,
2013-02-01 00:58:00,43.7,22.1,29.97,WSW,248,3.1,4.6,42,0.00,CLR,,0.00,WeatherDisplay:10.37,2013-02-01 06:58:00,
2013-02-01 01:03:00,43.7,22.1,29.97,West,270,3.1,3.8,42,0.00,CLR,,0.00,WeatherDisplay:10.37,2013-02-01 07:03:00,
2013-02-01 01:08:00,43.5,22.5,29.97,West,270,2.9,3.8,43,0.00,CLR,,0.00,WeatherDisplay:10.37,2013-02-01 07:08:00,
2013-02-01 01:13:00,43.3,22.3,29.97,West,270,3.3,4.0,43,0.00,CLR,,0.00,WeatherDisplay:10.37,2013-02-01 07:13:00,
2013-02-01 01:18:00,43.2,22.1,29.97,West,270,2.6,3.5,43,0.00,CLR,,0.00,WeatherDisplay:10.37,2013-02-01 07:18:00,
2013-02-01 01:23:00,42.8,22.4,29.97,West,270,2.9,4.3,44,0.00,CLR,,0.00,WeatherDisplay:10.37,2013-02-01 07:23:00,
2013-02-01 01:28:00,42.4,22.6,29.97,West,270,2.4,3.5,45,0.00,CLR,,0.00,WeatherDisplay:10.37,2013-02-01 07:28:00,
2013-02-01 01:33:00,42.3,22.4,29.97,West,270,2.6,4.6,45,0.00,CLR,,0.00,WeatherDisplay:10.37,2013-02-01 07:33:00,
2013-02-01 01:38:00,42.3,22.4,29.97,West,270,2.4,2.9,45,0.00,CLR,,0.00,WeatherDisplay:10.37,2013-02-01 07:38:00,
2013-02-01 01:43:00,42.3,22.9,29.97,West,270,2.6,3.8,46,0.00,CLR,,0.00,WeatherDisplay:10.37,2013-02-01 07:43:00,
2013-02-01 01:48:00,42.4,23.1,29.97,West,270,3.6,4.6,46,0.00,CLR,,0.00,WeatherDisplay:10.37,2013-02-01 07:48:00,
2013-02-01 01:53:00,42.4,23.6,29.97,West,270,2.9,3.6,47,0.00,CLR,,0.00,WeatherDisplay:10.37,2013-02-01 07:53:00,
2013-02-01 01:58:00,42.4,24.1,29.97,West,270,3.3,4.6,48,0.00,CLR,,0.00,WeatherDisplay:10.37,2013-02-01 07:58:00,
2013-02-01 02:03:00,42.3,23.9,29.97,WSW,248,2.9,3.6,48,0.00,CLR,,0.00,WeatherDisplay:10.37,2013-02-01 08:03:00,
2013-02-01 02:08:00,42.1,23.8,29.97,West,270,3.6,4.0,48,0.00,CLR,,0.00,WeatherDisplay:10.37,2013-02-01 08:08:00,
2013-02-01 02:13:00,42.1,23.8,29.97,West,270,3.1,4.0,48,0.00,CLR,,0.00,WeatherDisplay:10.37,2013-02-01 08:13:00,
2013-02-01 02:18:00,42.3,24.4,29.97,WNW,292,2.6,3.5,49,0.00,CLR,,0.00,WeatherDisplay:10.37,2013-02-01 08:18:00,
2013-02-01 02:23:00,42.3,24.4,29.97,West,270,3.1,4.6,49,0.00,CLR,,0.00,WeatherDisplay:10.37,2013-02-01 08:23:00,
2013-02-01 02:28:00,42.4,24.6,29.97,West,270,3.8,4.6,49,0.00,CLR,,0.00,WeatherDisplay:10.37,2013-02-01 08:28:00,
2013-02-01 02:33:00,42.4,24.6,29.97,WSW,248,2.9,4.6,49,0.00,CLR,,0.00,WeatherDisplay:10.37,2013-02-01 08:33:00,
2013-02-01 02:38:00,42.3,24.4,29.97,West,270,2.4,4.6,49,0.00,CLR,,0.00,WeatherDisplay:10.37,2013-02-01 08:38:00,
2013-02-01 02:43:00,42.3,24.4,29.97,West,270,2.6,3.5,49,0.00,CLR,,0.00,WeatherDisplay:10.37,2013-02-01 08:43:00,
2013-02-01 02:48:00,42.1,24.3,29.97,WSW,248,2.9,3.1,49,0.00,CLR,,0.00,WeatherDisplay:10.37,2013-02-01 08:48:00,
2013-02-01 02:53:00,42.3,24.4,29.97,West,270,3.6,5.4,49,0.00,CLR,,0.00,WeatherDisplay:10.37,2013-02-01 08:53:00,
2013-02-01 02:58:00,42.4,24.6,29.97,West,270,2.4,3.5,49,0.00,CLR,,0.00,WeatherDisplay:10.37,2013-02-01 08:58:00,
2013-02-01 03:03:00,42.4,24.6,29.94,West,270,2.9,3.5,49,0.00,CLR,,0.00,WeatherDisplay:10.37,2013-02-01 09:03:00,
2013-02-01 03:08:00,42.4,24.1,29.94,West,270,2.2,4.6,48,0.00,CLR,,0.00,WeatherDisplay:10.37,2013-02-01 09:08:00,
2013-02-01 03:13:00,42.4,24.1,29.94,WNW,292,2.2,3.5,48,0.00,CLR,,0.00,WeatherDisplay:10.37,2013-02-01 09:13:00,
2013-02-01 03:18:00,42.6,24.3,29.94,West,270,3.1,3.8,48,0.00,CLR,,0.00,WeatherDisplay:10.37,2013-02-01 09:18:00,
2013-02-01 03:23:00,42.8,24.4,29.94,WSW,248,2.6,4.6,48,0.00,CLR,,0.00,WeatherDisplay:10.37,2013-02-01 09:23:00,
2013-02-01 03:28:00,42.8,23.9,29.94,West,270,1.6,2.3,47,0.00,CLR,,0.00,WeatherDisplay:10.37,2013-02-01 09:28:00,
2013-02-01 03:33:00,42.8,23.9,29.94,West,270,2.6,3.3,47,0.00,CLR,,0.00,WeatherDisplay:10.37,2013-02-01 09:33:00,
2013-02-01 03:38:00,42.8,23.9,29.94,West,270,2.0,3.3,47,0.00,CLR,,0.00,WeatherDisplay:10.37,2013-02-01 09:38:00,
2013-02-01 03:43:00,42.6,24.3,29.94,WSW,248,2.9,3.3,48,0.00,CLR,,0.00,WeatherDisplay:10.37,2013-02-01 09:43:00,
2013-02-01 03:48:00,42.4,24.1,29.94,West,270,2.4,3.3,48,0.00,CLR,,0.00,WeatherDisplay:10.37,2013-02-01 09:48:00,
2013-02-01 03:53:00,42.3,23.9,29.94,West,270,2.0,2.4,48,0.00,CLR,,0.00,WeatherDisplay:10.37,2013-02-01 09:53:00,
2013-02-01 03:58:00,42.1,23.8,29.94,West,270,1.6,2.9,48,0.00,CLR,,0.00,WeatherDisplay:10.37,2013-02-01 09:58:00,
2013-02-01 04:03:00,41.9,23.6,29.94,West,270,2.2,2.6,48,0.00,CLR,,0.00,WeatherDisplay:10.37,2013-02-01 10:03:00,
2013-02-01 04:08:00,41.7,23.5,29.94,West,270,0.9,2.3,48,0.00,CLR,,0.00,WeatherDisplay:10.37,2013-02-01 10:08:00,
2013-02-01 04:13:00,41.5,23.3,29.94,West,270,0.0,0.0,48,0.00,CLR,,0.00,WeatherDisplay:10.37,2013-02-01 10:13:00,
2013-02-01 04:18:00,41.5,23.8,29.94,West,270,2.2,2.4,49,0.00,CLR,,0.00,WeatherDisplay:10.37,2013-02-01 10:18:00,
2013-02-01 04:23:00,41.4,23.6,29.94,West,270,0.0,1.1,49,0.00,CLR,,0.00,WeatherDisplay:10.37,2013-02-01 10:23:00,
2013-02-01 04:28:00,41.4,23.6,29.94,West,270,1.4,2.3,49,0.00,CLR,,0.00,WeatherDisplay:10.37,2013-02-01 10:28:00,
2013-02-01 04:33:00,41.2,23.4,29.94,West,270,1.6,2.3,49,0.00,CLR,,0.00,WeatherDisplay:10.37,2013-02-01 10:33:00,
2013-02-01 04:38:00,41.2,23.9,29.94,West,270,1.4,2.3,50,0.00,CLR,,0.00,WeatherDisplay:10.37,2013-02-01 10:38:00,
2013-02-01 04:43:00,41.2,23.9,29.94,WNW,292,2.0,2.6,50,0.00,CLR,,0.00,WeatherDisplay:10.37,2013-02-01 10:43:00,
2013-02-01 04:48:00,41.2,23.9,29.94,West,270,2.0,2.9,50,0.00,CLR,,0.00,WeatherDisplay:10.37,2013-02-01 10:48:00,
2013-02-01 04:53:00,41.5,24.3,29.94,WNW,292,2.4,2.6,50,0.00,CLR,,0.00,WeatherDisplay:10.37,2013-02-01 10:53:00,
2013-02-01 04:58:00,41.4,23.6,29.94,WNW,292,0.0,2.3,49,0.00,CLR,,0.00,WeatherDisplay:10.37,2013-02-01 10:58:00,
2013-02-01 05:03:00,41.4,23.6,29.94,West,270,1.6,2.3,49,0.00,CLR,,0.00,WeatherDisplay:10.37,2013-02-01 11:03:00,
2013-02-01 05:09:00,41.7,23.9,29.94,West,270,1.6,2.4,49,0.00,CLR,,0.00,WeatherDisplay:10.37,2013-02-01 11:09:00,
2013-02-01 05:14:00,41.9,24.1,29.94,WSW,248,2.0,3.5,49,0.00,CLR,,0.00,WeatherDisplay:10.37,2013-02-01 11:14:00,
2013-02-01 05:19:00,41.9,24.1,29.94,West,270,1.1,2.3,49,0.00,CLR,,0.00,WeatherDisplay:10.37,2013-02-01 11:19:00,
2013-02-01 05:24:00,41.7,23.9,29.94,West,270,1.4,2.3,49,0.00,CLR,,0.00,WeatherDisplay:10.37,2013-02-01 11:24:00,
2013-02-01 05:29:00,41.5,23.8,29.94,West,270,2.0,2.4,49,0.00,CLR,,0.00,WeatherDisplay:10.37,2013-02-01 11:29:00,
2013-02-01 05:34:00,41.5,23.8,29.94,West,270,1.4,2.3,49,0.00,CLR,,0.00,WeatherDisplay:10.37,2013-02-01 11:34:00,
2013-02-01 05:39:00,41.4,23.6,29.94,WNW,292,0.0,1.1,49,0.00,CLR,,0.00,WeatherDisplay:10.37,2013-02-01 11:39:00,
2013-02-01 05:44:00,41.2,23.4,29.94,WSW,248,0.0,0.0,49,0.00,CLR,,0.00,WeatherDisplay:10.37,2013-02-01 11:44:00,
2013-02-01 05:49:00,41.0,23.3,29.94,WSW,248,0.0,0.0,49,0.00,CLR,,0.00,WeatherDisplay:10.37,2013-02-01 11:49:00,
2013-02-01 05:54:00,40.8,23.1,29.94,WSW,248,0.0,0.0,49,0.00,CLR,,0.00,WeatherDisplay:10.37,2013-02-01 11:54:00,
2013-02-01 05:59:00,40.6,23.4,29.94,West,270,0.0,0.0,50,0.00,CLR,,0.00,WeatherDisplay:10.37,2013-02-01 11:59:00,
2013-02-01 06:04:00,40.6,23.4,29.97,West,270,0.0,0.0,50,0.00,CLR,,0.00,WeatherDisplay:10.37,2013-02-01 12:04:00,
2013-02-01 06:09:00,40.5,23.3,29.97,West,270,0.0,0.0,50,0.00,CLR,,0.00,WeatherDisplay:10.37,2013-02-01 12:09:00,
2013-02-01 06:14:00,40.5,24.2,29.97,West,270,0.0,0.0,52,0.00,CLR,,0.00,WeatherDisplay:10.37,2013-02-01 12:14:00,
2013-02-01 06:19:00,40.3,23.6,29.97,West,270,0.0,0.0,51,0.00,CLR,,0.00,WeatherDisplay:10.37,2013-02-01 12:19:00,
2013-02-01 06:24:00,40.3,23.6,29.97,West,270,0.0,0.0,51,0.00,CLR,,0.00,WeatherDisplay:10.37,2013-02-01 12:24:00,
2013-02-01 06:29:00,40.3,24.0,29.97,West,270,0.9,1.4,52,0.00,CLR,,0.00,WeatherDisplay:10.37,2013-02-01 12:29:00,
2013-02-01 06:34:00,40.5,24.2,30.00,WSW,248,2.2,3.5,52,0.00,CLR,,0.00,WeatherDisplay:10.37,2013-02-01 12:34:00,
2013-02-01 06:39:00,40.6,24.8,30.00,WSW,248,2.0,2.3,53,0.00,CLR,,0.00,WeatherDisplay:10.37,2013-02-01 12:39:00,
2013-02-01 06:44:00,40.8,25.4,30.00,West,270,2.9,3.5,54,0.00,CLR,,0.00,WeatherDisplay:10.37,2013-02-01 12:44:00,
2013-02-01 06:49:00,40.6,24.8,30.03,WSW,248,3.1,4.0,53,0.00,CLR,,0.00,WeatherDisplay:10.37,2013-02-01 12:49:00,
2013-02-01 06:54:00,40.6,25.3,30.03,WSW,248,3.6,4.6,54,0.00,CLR,,0.00,WeatherDisplay:10.37,2013-02-01 12:54:00,
2013-02-01 06:59:00,40.6,25.3,30.03,WSW,248,2.9,3.5,54,0.00,CLR,,0.00,WeatherDisplay:10.37,2013-02-01 12:59:00,
2013-02-01 07:04:00,40.5,25.1,30.00,West,270,2.9,3.6,54,0.00,CLR,,0.00,WeatherDisplay:10.37,2013-02-01 13:04:00,
2013-02-01 07:09:00,40.5,25.5,30.00,WSW,248,2.6,3.5,55,0.00,CLR,,0.00,WeatherDisplay:10.37,2013-02-01 13:09:00,
2013-02-01 07:14:00,40.5,25.5,30.00,West,270,2.6,3.5,55,0.00,CLR,,0.00,WeatherDisplay:10.37,2013-02-01 13:14:00,
2013-02-01 07:19:00,40.5,25.5,30.00,West,270,2.2,3.1,55,0.00,CLR,,0.00,WeatherDisplay:10.37,2013-02-01 13:19:00,
2013-02-01 07:24:00,40.5,25.5,30.00,West,270,1.1,2.3,55,0.00,CLR,,0.00,WeatherDisplay:10.37,2013-02-01 13:24:00,
2013-02-01 07:29:00,40.6,25.3,30.00,WSW,248,1.4,2.3,54,0.00,CLR,,0.00,WeatherDisplay:10.37,2013-02-01 13:29:00,
2013-02-01 07:34:00,40.6,25.7,30.03,WNW,292,0.0,1.1,55,0.00,CLR,,0.00,WeatherDisplay:10.37,2013-02-01 13:34:00,
2013-02-01 07:39:00,41.0,26.1,30.03,WSW,248,2.2,2.6,55,0.00,CLR,,0.00,WeatherDisplay:10.37,2013-02-01 13:39:00,
2013-02-01 07:44:00,41.2,25.8,30.03,West,270,2.4,2.9,54,0.00,CLR,,0.00,WeatherDisplay:10.37,2013-02-01 13:44:00,
2013-02-01 07:49:00,41.4,25.9,30.03,West,270,1.1,2.3,54,0.00,CLR,,0.00,WeatherDisplay:10.37,2013-02-01 13:49:00,
2013-02-01 07:54:00,41.7,26.3,30.03,West,270,0.0,0.0,54,0.00,CLR,,0.00,WeatherDisplay:10.37,2013-02-01 13:54:00,
2013-02-01 07:59:00,41.9,26.4,30.03,WSW,248,0.0,0.0,54,0.00,CLR,,0.00,WeatherDisplay:10.37,2013-02-01 13:59:00,
2013-02-01 08:04:00,42.3,26.8,30.03,West,270,0.0,0.0,54,0.00,CLR,,0.00,WeatherDisplay:10.37,2013-02-01 14:04:00,
2013-02-01 08:09:00,42.6,26.7,30.03,WSW,248,0.0,0.0,53,0.00,CLR,,0.00,WeatherDisplay:10.37,2013-02-01 14:09:00,
2013-02-01 08:14:00,43.0,26.5,30.03,WNW,292,0.0,0.0,52,0.00,CLR,,0.00,WeatherDisplay:10.37,2013-02-01 14:14:00,
2013-02-01 08:19:00,43.5,27.0,30.03,SSW,202,0.0,0.0,52,0.00,CLR,,0.00,WeatherDisplay:10.37,2013-02-01 14:19:00,
2013-02-01 08:24:00,44.1,27.1,30.03,NNE,22,0.0,0.0,51,0.00,CLR,,0.00,WeatherDisplay:10.37,2013-02-01 14:24:00,
2013-02-01 08:29:00,44.6,26.6,30.03,North,0,2.2,2.6,49,0.00,CLR,,0.00,WeatherDisplay:10.37,2013-02-01 14:29:00,
2013-02-01 08:34:00,45.0,26.4,30.03,NE,45,1.6,2.6,48,0.00,CLR,,0.00,WeatherDisplay:10.37,2013-02-01 14:34:00,
2013-02-01 08:39:00,45.3,24.7,30.03,North,0,3.3,3.5,44,0.00,CLR,,0.00,WeatherDisplay:10.37,2013-02-01 14:39:00,
2013-02-01 08:44:00,45.7,24.4,30.03,NNW,338,3.3,3.6,43,0.00,CLR,,0.00,WeatherDisplay:10.37,2013-02-01 14:44:00,
2013-02-01 08:49:00,46.0,23.0,30.03,North,0,4.5,6.9,40,0.00,CLR,,0.00,WeatherDisplay:10.37,2013-02-01 14:49:00,
2013-02-01 08:54:00,46.4,23.4,30.03,North,0,3.3,4.6,40,0.00,CLR,,0.00,WeatherDisplay:10.37,2013-02-01 14:54:00,
2013-02-01 08:59:00,46.8,23.7,30.03,North,0,4.9,6.0,40,0.00,CLR,,0.00,WeatherDisplay:10.37,2013-02-01 14:59:00,
2013-02-01 09:04:00,46.9,23.2,30.03,North,0,4.9,6.2,39,0.00,CLR,,0.00,WeatherDisplay:10.37,2013-02-01 15:04:00,
2013-02-01 09:09:00,46.9,22.6,30.03,NE,45,6.0,6.2,38,0.00,CLR,,0.00,WeatherDisplay:10.37,2013-02-01 15:09:00,
2013-02-01 09:14:00,47.1,22.8,30.03,NNE,22,6.2,9.2,38,0.00,CLR,,0.00,WeatherDisplay:10.37,2013-02-01 15:14:00,
2013-02-01 09:19:00,47.1,22.8,30.03,NNW,338,4.3,5.8,38,0.00,CLR,,0.00,WeatherDisplay:10.37,2013-02-01 15:19:00,
2013-02-01 09:24:00,47.7,23.3,30.03,North,0,4.5,5.8,38,0.00,CLR,,0.00,WeatherDisplay:10.37,2013-02-01 15:24:00,
2013-02-01 09:29:00,47.7,22.6,30.03,North,0,6.7,8.1,37,0.00,CLR,,0.00,WeatherDisplay:10.37,2013-02-01 15:29:00,
2013-02-01 09:34:00,48.0,23.6,30.06,North,0,6.7,7.6,38,0.00,CLR,,0.00,WeatherDisplay:10.37,2013-02-01 15:34:00,
2013-02-01 09:39:00,48.4,23.3,30.06,NNE,22,8.1,10.7,37,0.00,CLR,,0.00,WeatherDisplay:10.37,2013-02-01 15:39:00,
2013-02-01 09:44:00,48.7,23.6,30.06,NNE,22,6.0,6.9,37,0.00,CLR,,0.00,WeatherDisplay:10.37,2013-02-01 15:44:00,
2013-02-01 09:49:00,49.1,23.9,30.03,NE,45,5.9,6.9,37,0.00,CLR,,0.00,WeatherDisplay:10.37,2013-02-01 15:49:00,
2013-02-01 09:54:00,49.3,23.4,30.03,NNE,22,4.7,6.2,36,0.00,CLR,,0.00,WeatherDisplay:10.37,2013-02-01 15:54:00,
2013-02-01 09:59:00,49.3,24.1,30.03,NNE,22,6.7,9.2,37,0.00,CLR,,0.00,WeatherDisplay:10.37,2013-02-01 15:59:00,
2013-02-01 10:04:00,49.3,22.8,30.03,NNE,22,7.4,9.2,35,0.00,CLR,,0.00,WeatherDisplay:10.37,2013-02-01 16:04:00,
2013-02-01 10:09:00,49.5,22.9,30.03,NE,45,4.9,5.9,35,0.00,CLR,,0.00,WeatherDisplay:10.37,2013-02-01 16:09:00,
2013-02-01 10:14:00,49.8,23.2,30.03,NE,45,7.1,13.8,35,0.00,CLR,,0.00,WeatherDisplay:10.37,2013-02-01 16:14:00,
2013-02-01 10:19:00,50.0,22.7,30.06,North,0,6.4,8.1,34,0.00,CLR,,0.00,WeatherDisplay:10.37,2013-02-01 16:19:00,
2013-02-01 10:24:00,50.4,23.0,30.06,NNE,22,6.0,7.4,34,0.00,CLR,,0.00,WeatherDisplay:10.37,2013-02-01 16:24:00,
2013-02-01 10:29:00,50.7,23.3,30.06,North,0,7.1,9.2,34,0.00,CLR,,0.00,WeatherDisplay:10.37,2013-02-01 16:29:00,
2013-02-01 10:34:00,51.1,23.7,30.03,NNE,22,5.4,6.9,34,0.00,CLR,,0.00,WeatherDisplay:10.37,2013-02-01 16:34:00,
2013-02-01 10:39:00,51.3,23.8,30.03,NNE,22,6.2,7.4,34,0.00,CLR,,0.00,WeatherDisplay:10.37,2013-02-01 16:39:00,
2013-02-01 10:44:00,51.8,22.8,30.03,NE,45,8.5,11.5,32,0.00,CLR,,0.00,WeatherDisplay:10.37,2013-02-01 16:44:00,
2013-02-01 10:49:00,52.7,22.9,30.03,North,0,8.1,12.7,31,0.00,CLR,,0.00,WeatherDisplay:10.37,2013-02-01 16:49:00,
2013-02-01 10:54:00,53.1,22.4,30.03,NNE,22,8.1,10.7,30,0.00,CLR,,0.00,WeatherDisplay:10.37,2013-02-01 16:54:00,
2013-02-01 10:59:00,54.0,22.4,30.03,NNE,22,6.4,12.5,29,0.00,CLR,,0.00,WeatherDisplay:10.37,2013-02-01 16:59:00,
2013-02-01 11:04:00,53.8,21.4,30.03,North,0,9.0,10.4,28,0.00,CLR,,0.00,WeatherDisplay:10.37,2013-02-01 17:04:00,
2013-02-01 11:09:00,54.0,21.6,30.03,NNE,22,7.4,10.4,28,0.00,CLR,,0.00,WeatherDisplay:10.37,2013-02-01 17:09:00,
2013-02-01 11:14:00,54.9,22.3,30.03,NNE,22,7.8,10.5,28,0.00,CLR,,0.00,WeatherDisplay:10.37,2013-02-01 17:14:00,
2013-02-01 11:19:00,55.4,21.9,30.03,NNE,22,7.4,10.0,27,0.00,CLR,,0.00,WeatherDisplay:10.37,2013-02-01 17:19:00,
2013-02-01 11:24:00,55.4,21.9,30.03,North,0,8.5,10.7,27,0.00,CLR,,0.00,WeatherDisplay:10.37,2013-02-01 17:24:00,
2013-02-01 11:29:00,55.9,21.5,30.03,NNW,338,7.8,12.3,26,0.00,CLR,,0.00,WeatherDisplay:10.37,2013-02-01 17:29:00,
2013-02-01 11:34:00,55.8,21.3,30.03,North,0,8.5,12.7,26,0.00,CLR,,0.00,WeatherDisplay:10.37,2013-02-01 17:34:00,
2013-02-01 11:39:00,55.6,22.1,30.03,NNE,22,6.7,9.2,27,0.00,CLR,,0.00,WeatherDisplay:10.37,2013-02-01 17:39:00,
2013-02-01 11:44:00,56.3,21.8,30.03,North,0,7.1,9.2,26,0.00,CLR,,0.00,WeatherDisplay:10.37,2013-02-01 17:44:00,
2013-02-01 11:49:00,56.8,22.3,30.03,NNE,22,6.9,11.5,26,0.00,CLR,,0.00,WeatherDisplay:10.37,2013-02-01 17:49:00,
2013-02-01 11:54:00,57.0,22.4,30.03,NNE,22,7.1,10.4,26,0.00,CLR,,0.00,WeatherDisplay:10.37,2013-02-01 17:54:00,
2013-02-01 11:59:00,57.7,23.0,30.03,NNE,22,5.6,9.2,26,0.00,CLR,,0.00,WeatherDisplay:10.37,2013-02-01 17:59:00,
2013-02-01 12:04:00,57.7,22.1,30.00,NNE,22,7.1,10.4,25,0.00,CLR,,0.00,WeatherDisplay:10.37,2013-02-01 18:04:00,
2013-02-01 12:09:00,58.1,22.4,30.00,North,0,7.6,11.8,25,0.00,CLR,,0.00,WeatherDisplay:10.37,2013-02-01 18:09:00,
2013-02-01 12:14:00,58.6,23.8,30.00,NE,45,4.9,7.4,26,0.00,CLR,,0.00,WeatherDisplay:10.37,2013-02-01 18:14:00,
2013-02-01 12:19:00,58.3,22.6,30.00,NE,45,6.7,8.7,25,0.00,CLR,,0.00,WeatherDisplay:10.37,2013-02-01 18:19:00,
2013-02-01 12:24:00,58.5,22.7,30.00,NNW,338,6.4,9.2,25,0.00,CLR,,0.00,WeatherDisplay:10.37,2013-02-01 18:24:00,
2013-02-01 12:29:00,58.5,22.7,30.00,NNE,22,7.4,8.5,25,0.00,CLR,,0.00,WeatherDisplay:10.37,2013-02-01 18:29:00,
2013-02-01 12:34:00,58.8,23.0,30.00,NE,45,6.0,9.2,25,0.00,CLR,,0.00,WeatherDisplay:10.37,2013-02-01 18:34:00,
2013-02-01 12:39:00,59.2,22.4,30.00,NNW,338,5.6,8.1,24,0.00,CLR,,0.00,WeatherDisplay:10.37,2013-02-01 18:39:00,
2013-02-01 12:44:00,59.5,22.7,30.00,North,0,7.6,10.4,24,0.00,CLR,,0.00,WeatherDisplay:10.37,2013-02-01 18:44:00,
2013-02-01 12:49:00,59.7,22.8,30.00,NE,45,6.0,8.1,24,0.00,CLR,,0.00,WeatherDisplay:10.37,2013-02-01 18:49:00,
2013-02-01 12:54:00,59.4,22.5,30.00,NE,45,8.7,12.3,24,0.00,CLR,,0.00,WeatherDisplay:10.37,2013-02-01 18:54:00,
2013-02-01 12:59:00,59.0,22.2,30.00,NNE,22,9.8,12.5,24,0.00,CLR,,0.00,WeatherDisplay:10.37,2013-02-01 18:59:00,
2013-02-01 13:04:00,58.8,23.0,30.00,North,0,5.6,10.4,25,0.00,CLR,,0.00,WeatherDisplay:10.37,2013-02-01 19:04:00,
2013-02-01 13:09:00,59.2,22.4,30.00,NE,45,7.8,9.2,24,0.00,CLR,,0.00,WeatherDisplay:10.37,2013-02-01 19:09:00,
2013-02-01 13:14:00,59.4,22.5,30.00,East,90,4.5,9.2,24,0.00,CLR,,0.00,WeatherDisplay:10.37,2013-02-01 19:14:00,
2013-02-01 13:19:00,59.5,22.7,30.00,NE,45,7.4,9.7,24,0.00,CLR,,0.00,WeatherDisplay:10.37,2013-02-01 19:19:00,
2013-02-01 13:24:00,59.7,22.8,30.00,NNE,22,4.5,9.2,24,0.00,CLR,,0.00,WeatherDisplay:10.37,2013-02-01 19:24:00,
2013-02-01 13:29:00,59.5,22.7,30.00,ENE,68,6.4,9.2,24,0.00,CLR,,0.00,WeatherDisplay:10.37,2013-02-01 19:29:00,
2013-02-01 13:34:00,59.7,22.8,30.00,North,0,9.2,12.7,24,0.00,CLR,,0.00,WeatherDisplay:10.37,2013-02-01 19:34:00,
2013-02-01 13:39:00,59.4,22.5,30.00,North,0,7.6,10.4,24,0.00,CLR,,0.00,WeatherDisplay:10.37,2013-02-01 19:39:00,
2013-02-01 13:44:00,60.1,23.1,30.00,NNE,22,7.4,10.4,24,0.00,CLR,,0.00,WeatherDisplay:10.37,2013-02-01 19:44:00,
2013-02-01 13:49:00,60.4,23.4,30.00,North,0,3.8,5.8,24,0.00,CLR,,0.00,WeatherDisplay:10.37,2013-02-01 19:49:00,
2013-02-01 13:54:00,60.4,23.4,30.00,WNW,292,6.7,8.1,24,0.00,CLR,,0.00,WeatherDisplay:10.37,2013-02-01 19:54:00,
2013-02-01 13:59:00,60.1,23.1,30.00,North,0,7.8,9.8,24,0.00,CLR,,0.00,WeatherDisplay:10.37,2013-02-01 19:59:00,
2013-02-01 14:04:00,60.8,23.7,30.00,NNE,22,4.9,6.9,24,0.00,CLR,,0.00,WeatherDisplay:10.37,2013-02-01 20:04:00,
2013-02-01 14:09:00,61.0,23.9,30.00,North,0,8.1,10.4,24,0.00,CLR,,0.00,WeatherDisplay:10.37,2013-02-01 20:09:00,
2013-02-01 14:14:00,61.2,24.0,30.00,North,0,6.4,10.9,24,0.00,CLR,,0.00,WeatherDisplay:10.37,2013-02-01 20:14:00,
2013-02-01 14:19:00,61.3,21.0,30.00,North,0,8.7,12.5,21,0.00,CLR,,0.00,WeatherDisplay:10.37,2013-02-01 20:19:00,
2013-02-01 14:24:00,61.5,21.2,30.00,NW,315,8.1,9.2,21,0.00,CLR,,0.00,WeatherDisplay:10.37,2013-02-01 20:24:00,
2013-02-01 14:29:00,61.2,20.9,30.00,NNE,22,6.7,9.2,21,0.00,CLR,,0.00,WeatherDisplay:10.37,2013-02-01 20:29:00,
2013-02-01 14:34:00,61.9,21.5,29.97,North,0,7.4,8.1,21,0.00,CLR,,0.00,WeatherDisplay:10.37,2013-02-01 20:34:00,
2013-02-01 14:39:00,61.2,20.9,29.97,NNE,22,8.1,9.2,21,0.00,CLR,,0.00,WeatherDisplay:10.37,2013-02-01 20:39:00,
2013-02-01 14:44:00,61.5,21.2,29.97,NNW,338,6.9,8.1,21,0.00,CLR,,0.00,WeatherDisplay:10.37,2013-02-01 20:44:00,
2013-02-01 14:49:00,61.3,21.0,29.97,North,0,6.2,7.4,21,0.00,CLR,,0.00,WeatherDisplay:10.37,2013-02-01 20:49:00,
2013-02-01 14:54:00,61.9,21.5,29.97,NW,315,3.6,6.9,21,0.00,CLR,,0.00,WeatherDisplay:10.37,2013-02-01 20:54:00,
2013-02-01 14:59:00,62.4,21.9,29.97,North,0,6.4,8.5,21,0.00,CLR,,0.00,WeatherDisplay:10.37,2013-02-01 20:59:00,
2013-02-01 15:04:00,62.6,18.4,29.97,North,0,6.2,7.1,18,0.00,CLR,,0.00,WeatherDisplay:10.37,2013-02-01 21:04:00,
2013-02-01 15:09:00,61.9,19.1,29.97,West,270,6.0,9.2,19,0.00,CLR,,0.00,WeatherDisplay:10.37,2013-02-01 21:09:00,
2013-02-01 15:14:00,62.4,19.6,29.97,North,0,4.0,5.8,19,0.00,CLR,,0.00,WeatherDisplay:10.37,2013-02-01 21:14:00,
2013-02-01 15:19:00,62.1,19.3,29.97,North,0,3.8,5.8,19,0.00,CLR,,0.00,WeatherDisplay:10.37,2013-02-01 21:19:00,
2013-02-01 15:24:00,62.6,18.4,29.97,North,0,6.0,6.9,18,0.00,CLR,,0.00,WeatherDisplay:10.37,2013-02-01 21:24:00,
2013-02-01 15:29:00,62.2,19.4,29.97,NNW,338,6.2,7.1,19,0.00,CLR,,0.00,WeatherDisplay:10.37,2013-02-01 21:29:00,
2013-02-01 15:34:00,62.1,19.3,29.97,NNE,22,4.3,8.1,19,0.00,CLR,,0.00,WeatherDisplay:10.37,2013-02-01 21:34:00,
2013-02-01 15:39:00,62.6,18.4,29.97,NNE,22,5.9,6.9,18,0.00,CLR,,0.00,WeatherDisplay:10.37,2013-02-01 21:39:00,
2013-02-01 15:45:00,63.0,18.7,29.97,North,0,3.6,4.7,18,0.00,CLR,,0.00,WeatherDisplay:10.37,2013-02-01 21:45:00,
2013-02-01 15:50:00,62.1,19.3,29.97,North,0,6.0,8.1,19,0.00,CLR,,0.00,WeatherDisplay:10.37,2013-02-01 21:50:00,
2013-02-01 15:55:00,61.9,19.1,29.97,North,0,5.4,8.1,19,0.00,CLR,,0.00,WeatherDisplay:10.37,2013-02-01 21:55:00,
2013-02-01 16:00:00,62.2,19.4,29.97,ENE,68,4.7,6.9,19,0.00,CLR,,0.00,WeatherDisplay:10.37,2013-02-01 22:00:00,
2013-02-01 16:06:00,62.1,19.3,29.97,ENE,68,4.9,5.8,19,0.00,CLR,,0.00,WeatherDisplay:10.37,2013-02-01 22:06:00,
2013-02-01 16:11:00,61.7,19.0,29.97,NNE,22,5.9,10.4,19,0.00,CLR,,0.00,WeatherDisplay:10.37,2013-02-01 22:11:00,
2013-02-01 16:16:00,61.3,18.7,29.97,NE,45,4.7,9.2,19,0.00,CLR,,0.00,WeatherDisplay:10.37,2013-02-01 22:16:00,
2013-02-01 16:21:00,61.5,18.8,29.97,North,0,5.9,6.9,19,0.00,CLR,,0.00,WeatherDisplay:10.37,2013-02-01 22:21:00,
2013-02-01 16:26:00,61.5,18.8,29.97,NNE,22,4.5,6.0,19,0.00,CLR,,0.00,WeatherDisplay:10.37,2013-02-01 22:26:00,
2013-02-01 16:31:00,61.2,18.5,29.97,ENE,68,6.0,8.1,19,0.00,CLR,,0.00,WeatherDisplay:10.37,2013-02-01 22:31:00,
2013-02-01 16:36:00,60.4,17.9,30.00,NNE,22,7.6,9.2,19,0.00,CLR,,0.00,WeatherDisplay:10.37,2013-02-01 22:36:00,
2013-02-01 16:41:00,60.4,17.9,30.00,ENE,68,5.4,6.9,19,0.00,CLR,,0.00,WeatherDisplay:10.37,2013-02-01 22:41:00,
2013-02-01 16:46:00,60.1,17.6,30.00,NE,45,5.4,6.0,19,0.00,CLR,,0.00,WeatherDisplay:10.37,2013-02-01 22:46:00,
2013-02-01 16:51:00,59.7,17.3,30.00,NNE,22,5.4,7.6,19,0.00,CLR,,0.00,WeatherDisplay:10.37,2013-02-01 22:51:00,
2013-02-01 16:56:00,59.5,17.2,30.00,NNE,22,4.9,6.9,19,0.00,CLR,,0.00,WeatherDisplay:10.37,2013-02-01 22:56:00,
2013-02-01 17:01:00,59.2,16.9,30.00,North,0,5.4,6.2,19,0.00,CLR,,0.00,WeatherDisplay:10.37,2013-02-01 23:01:00,
2013-02-01 17:06:00,58.6,16.4,30.00,NE,45,4.5,6.0,19,0.00,CLR,,0.00,WeatherDisplay:10.37,2013-02-01 23:06:00,
2013-02-01 17:11:00,58.1,16.0,30.00,ENE,68,2.9,4.6,19,0.00,CLR,,0.00,WeatherDisplay:10.37,2013-02-01 23:11:00,
2013-02-01 17:16:00,57.6,15.5,30.00,ENE,68,2.6,3.5,19,0.00,CLR,,0.00,WeatherDisplay:10.37,2013-02-01 23:16:00,
2013-02-01 17:21:00,57.2,15.2,30.00,NE,45,3.3,3.5,19,0.00,CLR,,0.00,WeatherDisplay:10.37,2013-02-01 23:21:00,
2013-02-01 17:26:00,56.8,16.1,30.00,NNE,22,2.9,3.6,20,0.00,CLR,,0.00,WeatherDisplay:10.37,2013-02-01 23:26:00,
2013-02-01 17:31:00,56.5,15.8,30.00,NNE,22,2.2,3.1,20,0.00,CLR,,0.00,WeatherDisplay:10.37,2013-02-01 23:31:00,
2013-02-01 17:36:00,56.1,15.5,30.00,NE,45,2.9,3.5,20,0.00,CLR,,0.00,WeatherDisplay:10.37,2013-02-01 23:36:00,
2013-02-01 17:41:00,55.8,15.2,30.00,NNE,22,3.1,4.6,20,0.00,CLR,,0.00,WeatherDisplay:10.37,2013-02-01 23:41:00,
2013-02-01 17:46:00,55.4,14.9,30.00,NNE,22,3.6,3.8,20,0.00,CLR,,0.00,WeatherDisplay:10.37,2013-02-01 23:46:00,
2013-02-01 17:51:00,55.0,14.6,30.00,NNE,22,3.6,4.0,20,0.00,CLR,,0.00,WeatherDisplay:10.37,2013-02-01 23:51:00,
2013-02-01 17:56:00,54.7,17.6,30.00,North,0,1.6,2.3,23,0.00,CLR,,0.00,WeatherDisplay:10.37,2013-02-01 23:56:00,
2013-02-01 18:01:00,54.5,17.4,30.00,NE,45,2.2,3.5,23,0.00,CLR,,0.00,WeatherDisplay:10.37,2013-02-02 00:01:00,
2013-02-01 18:06:00,54.1,17.1,30.00,ENE,68,2.0,2.4,23,0.00,CLR,,0.00,WeatherDisplay:10.37,2013-02-02 00:06:00,
2013-02-01 18:11:00,53.8,16.8,30.00,ENE,68,1.6,2.3,23,0.00,CLR,,0.00,WeatherDisplay:10.37,2013-02-02 00:11:00,
2013-02-01 18:16:00,53.4,16.5,30.00,ENE,68,2.0,2.4,23,0.00,CLR,,0.00,WeatherDisplay:10.37,2013-02-02 00:16:00,
2013-02-01 18:21:00,53.1,16.2,30.00,North,0,2.6,2.9,23,0.00,CLR,,0.00,WeatherDisplay:10.37,2013-02-02 00:21:00,
2013-02-01 18:26:00,52.7,15.9,30.00,NNE,22,2.2,2.4,23,0.00,CLR,,0.00,WeatherDisplay:10.37,2013-02-02 00:26:00,
2013-02-01 18:31:00,52.5,15.7,30.00,NE,45,1.1,2.3,23,0.00,CLR,,0.00,WeatherDisplay:10.37,2013-02-02 00:31:00,
2013-02-01 18:36:00,52.2,15.4,30.00,ENE,68,2.0,2.3,23,0.00,CLR,,0.00,WeatherDisplay:10.37,2013-02-02 00:36:00,
2013-02-01 18:41:00,51.8,18.0,30.00,North,0,2.0,3.1,26,0.00,CLR,,0.00,WeatherDisplay:10.37,2013-02-02 00:41:00,
2013-02-01 18:46:00,51.6,17.8,30.00,East,90,1.4,2.4,26,0.00,CLR,,0.00,WeatherDisplay:10.37,2013-02-02 00:46:00,
2013-02-01 18:51:00,51.3,17.5,30.00,East,90,0.0,1.1,26,0.00,CLR,,0.00,WeatherDisplay:10.37,2013-02-02 00:51:00,
2013-02-01 18:56:00,50.9,17.2,30.00,North,0,0.0,0.9,26,0.00,CLR,,0.00,WeatherDisplay:10.37,2013-02-02 00:56:00,
2013-02-01 19:01:00,50.4,16.7,30.00,ESE,112,0.0,2.3,26,0.00,CLR,,0.00,WeatherDisplay:10.37,2013-02-02 01:01:00,
2013-02-01 19:06:00,50.0,16.4,30.00,ENE,68,0.0,0.0,26,0.00,CLR,,0.00,WeatherDisplay:10.37,2013-02-02 01:06:00,
2013-02-01 19:11:00,49.6,17.0,30.00,ENE,68,2.0,2.4,27,0.00,CLR,,0.00,WeatherDisplay:10.37,2013-02-02 01:11:00,
2013-02-01 19:16:00,49.5,16.8,30.00,ENE,68,1.6,2.0,27,0.00,CLR,,0.00,WeatherDisplay:10.37,2013-02-02 01:16:00,
2013-02-01 19:21:00,49.1,16.5,30.00,NNE,22,2.2,2.3,27,0.00,CLR,,0.00,WeatherDisplay:10.37,2013-02-02 01:21:00,
2013-02-01 19:26:00,48.9,16.4,30.00,NE,45,1.4,2.6,27,0.00,CLR,,0.00,WeatherDisplay:10.37,2013-02-02 01:26:00,
2013-02-01 19:31:00,48.7,16.2,30.00,NNE,22,2.2,2.9,27,0.00,CLR,,0.00,WeatherDisplay:10.37,2013-02-02 01:31:00,
2013-02-01 19:36:00,48.6,16.0,30.00,East,90,2.6,2.9,27,0.00,CLR,,0.00,WeatherDisplay:10.37,2013-02-02 01:36:00,
2013-02-01 19:41:00,48.2,15.7,30.00,East,90,1.4,2.3,27,0.00,CLR,,0.00,WeatherDisplay:10.37,2013-02-02 01:41:00,
2013-02-01 19:46:00,47.8,16.3,30.00,ENE,68,0.9,1.4,28,0.00,CLR,,0.00,WeatherDisplay:10.37,2013-02-02 01:46:00,
2013-02-01 19:51:00,47.8,16.3,30.00,NE,45,2.0,2.3,28,0.00,CLR,,0.00,WeatherDisplay:10.37,2013-02-02 01:51:00,
2013-02-01 19:56:00,47.7,16.1,30.00,NNE,22,2.4,3.5,28,0.00,CLR,,0.00,WeatherDisplay:10.37,2013-02-02 01:56:00,
2013-02-01 20:01:00,47.5,15.9,30.00,East,90,1.4,2.3,28,0.00,CLR,,0.00,WeatherDisplay:10.37,2013-02-02 02:01:00,
2013-02-01 20:06:00,47.5,15.9,30.00,NE,45,2.0,2.4,28,0.00,CLR,,0.00,WeatherDisplay:10.37,2013-02-02 02:06:00,
2013-02-01 20:11:00,47.1,15.6,30.00,ESE,112,2.2,2.6,28,0.00,CLR,,0.00,WeatherDisplay:10.37,2013-02-02 02:11:00,
2013-02-01 20:16:00,46.9,15.5,30.00,ENE,68,2.0,2.2,28,0.00,CLR,,0.00,WeatherDisplay:10.37,2013-02-02 02:16:00,
2013-02-01 20:21:00,46.8,15.3,30.00,ENE,68,2.6,3.5,28,0.00,CLR,,0.00,WeatherDisplay:10.37,2013-02-02 02:21:00,
2013-02-01 20:26:00,46.6,15.2,30.00,ENE,68,1.4,2.3,28,0.00,CLR,,0.00,WeatherDisplay:10.37,2013-02-02 02:26:00,
2013-02-01 20:31:00,46.4,15.0,30.00,NE,45,2.4,2.6,28,0.00,CLR,,0.00,WeatherDisplay:10.37,2013-02-02 02:31:00,
2013-02-01 20:36:00,46.0,15.5,30.00,NE,45,2.0,2.6,29,0.00,CLR,,0.00,WeatherDisplay:10.37,2013-02-02 02:36:00,
2013-02-01 20:41:00,45.9,15.3,30.00,East,90,2.4,2.6,29,0.00,CLR,,0.00,WeatherDisplay:10.37,2013-02-02 02:41:00,
2013-02-01 20:46:00,45.7,15.2,30.00,East,90,2.9,3.5,29,0.00,CLR,,0.00,WeatherDisplay:10.37,2013-02-02 02:46:00,
2013-02-01 20:51:00,45.5,15.0,30.00,East,90,2.4,3.5,29,0.00,CLR,,0.00,WeatherDisplay:10.37,2013-02-02 02:51:00,
2013-02-01 20:56:00,45.3,14.9,30.00,ENE,68,2.0,3.3,29,0.00,CLR,,0.00,WeatherDisplay:10.37,2013-02-02 02:56:00,
2013-02-01 21:01:00,45.3,14.9,30.00,East,90,2.6,3.5,29,0.00,CLR,,0.00,WeatherDisplay:10.37,2013-02-02 03:01:00,
2013-02-01 21:06:00,45.3,14.9,30.00,East,90,1.4,2.9,29,0.00,CLR,,0.00,WeatherDisplay:10.37,2013-02-02 03:06:00,
2013-02-01 21:11:00,45.1,14.7,30.00,East,90,1.6,2.3,29,0.00,CLR,,0.00,WeatherDisplay:10.37,2013-02-02 03:11:00,
2013-02-01 21:16:00,44.6,14.3,30.00,East,90,1.1,1.6,29,0.00,CLR,,0.00,WeatherDisplay:10.37,2013-02-02 03:16:00,
2013-02-01 21:21:00,44.2,13.9,30.00,ENE,68,1.6,2.0,29,0.00,CLR,,0.00,WeatherDisplay:10.37,2013-02-02 03:21:00,
2013-02-01 21:26:00,44.2,13.9,30.00,NE,45,2.9,3.6,29,0.00,CLR,,0.00,WeatherDisplay:10.37,2013-02-02 03:26:00,
2013-02-01 21:31:00,44.4,14.1,30.00,East,90,4.0,4.9,29,0.00,CLR,,0.00,WeatherDisplay:10.37,2013-02-02 03:31:00,
2013-02-01 21:36:00,44.2,13.9,30.00,ENE,68,2.4,3.5,29,0.00,CLR,,0.00,WeatherDisplay:10.37,2013-02-02 03:36:00,
2013-02-01 21:41:00,44.2,13.9,30.00,ENE,68,3.3,4.6,29,0.00,CLR,,0.00,WeatherDisplay:10.37,2013-02-02 03:41:00,
2013-02-01 21:46:00,44.4,14.1,30.00,ENE,68,2.9,3.5,29,0.00,CLR,,0.00,WeatherDisplay:10.37,2013-02-02 03:46:00,
2013-02-01 21:51:00,44.2,13.9,30.00,ENE,68,2.4,3.5,29,0.00,CLR,,0.00,WeatherDisplay:10.37,2013-02-02 03:51:00,
2013-02-01 21:56:00,44.2,13.1,30.00,ENE,68,2.4,2.9,28,0.00,CLR,,0.00,WeatherDisplay:10.37,2013-02-02 03:56:00,
2013-02-01 22:01:00,44.1,13.0,30.00,ENE,68,2.4,3.5,28,0.00,CLR,,0.00,WeatherDisplay:10.37,2013-02-02 04:01:00,
2013-02-01 22:06:00,43.9,12.8,30.00,ENE,68,2.6,3.5,28,0.00,CLR,,0.00,WeatherDisplay:10.37,2013-02-02 04:06:00,
2013-02-01 22:11:00,43.9,12.8,30.00,ENE,68,2.9,3.8,28,0.00,CLR,,0.00,WeatherDisplay:10.37,2013-02-02 04:11:00,
2013-02-01 22:16:00,43.7,12.7,30.00,ENE,68,2.4,3.5,28,0.00,CLR,,0.00,WeatherDisplay:10.37,2013-02-02 04:16:00,
2013-02-01 22:21:00,43.5,12.5,30.00,NE,45,3.6,4.3,28,0.00,CLR,,0.00,WeatherDisplay:10.37,2013-02-02 04:21:00,
2013-02-01 22:26:00,43.3,12.4,30.00,East,90,3.1,4.0,28,0.00,CLR,,0.00,WeatherDisplay:10.37,2013-02-02 04:26:00,
2013-02-01 22:31:00,43.5,12.5,30.00,NE,45,4.3,5.4,28,0.00,CLR,,0.00,WeatherDisplay:10.37,2013-02-02 04:31:00,
2013-02-01 22:36:00,43.5,12.5,30.00,East,90,4.0,5.8,28,0.00,CLR,,0.00,WeatherDisplay:10.37,2013-02-02 04:36:00,
2013-02-01 22:41:00,43.3,12.4,30.00,NE,45,2.9,4.6,28,0.00,CLR,,0.00,WeatherDisplay:10.37,2013-02-02 04:41:00,
2013-02-01 22:46:00,43.0,12.0,30.00,ENE,68,3.8,4.7,28,0.00,CLR,,0.00,WeatherDisplay:10.37,2013-02-02 04:46:00,
2013-02-01 22:51:00,43.0,12.0,30.00,ENE,68,3.8,5.8,28,0.00,CLR,,0.00,WeatherDisplay:10.37,2013-02-02 04:51:00,
2013-02-01 22:56:00,42.8,11.9,30.00,East,90,4.0,5.6,28,0.00,CLR,,0.00,WeatherDisplay:10.37,2013-02-02 04:56:00,
2013-02-01 23:00:00,42.8,11.9,30.00,ENE,68,4.9,5.8,28,0.00,CLR,,0.00,WeatherDisplay:10.37,2013-02-02 05:00:00,
2013-02-01 23:02:00,42.8,11.9,30.00,NE,45,4.0,4.6,28,0.00,CLR,,0.00,WeatherDisplay:10.37,2013-02-02 05:02:00,
2013-02-01 23:07:00,43.0,12.0,30.00,ENE,68,4.5,5.9,28,0.00,CLR,,0.00,WeatherDisplay:10.37,2013-02-02 05:07:00,
2013-02-01 23:11:00,43.0,12.0,30.00,ENE,68,4.7,8.1,28,0.00,CLR,,0.00,WeatherDisplay:10.37,2013-02-02 05:11:00,
2013-02-01 23:16:00,43.0,12.0,30.00,ENE,68,5.4,6.9,28,0.00,CLR,,0.00,WeatherDisplay:10.37,2013-02-02 05:16:00,
2013-02-01 23:21:00,43.0,12.0,29.97,ENE,68,4.9,6.0,28,0.00,CLR,,0.00,WeatherDisplay:10.37,2013-02-02 05:21:00,
2013-02-01 23:26:00,42.8,11.9,29.97,ENE,68,3.8,5.8,28,0.00,CLR,,0.00,WeatherDisplay:10.37,2013-02-02 05:26:00,
2013-02-01 23:31:00,42.4,11.6,29.97,NE,45,3.8,4.6,28,0.00,CLR,,0.00,WeatherDisplay:10.37,2013-02-02 05:31:00,
2013-02-01 23:36:00,42.3,11.4,29.97,East,90,3.1,4.6,28,0.00,CLR,,0.00,WeatherDisplay:10.37,2013-02-02 05:36:00,
2013-02-01 23:41:00,42.3,11.4,29.97,NE,45,4.7,6.0,28,0.00,CLR,,0.00,WeatherDisplay:10.37,2013-02-02 05:41:00,
2013-02-01 23:46:00,42.3,11.4,29.97,ENE,68,3.3,4.6,28,0.00,CLR,,0.00,WeatherDisplay:10.37,2013-02-02 05:46:00,
2013-02-01 23:51:00,42.1,11.3,29.97,East,90,5.4,6.2,28,0.00,CLR,,0.00,WeatherDisplay:10.37,2013-02-02 05:51:00,
2013-02-01 23:56:00,42.1,11.3,29.97,ENE,68,4.5,6.9,28,0.00,CLR,,0.00,WeatherDisplay:10.37,2013-02-02 05:56:00,